www.pogodaiklimat.ru

Погода и климат >> Архив погоды >> Россия >> Калмыкия >> Кетченеры


ПОГОДА в Кетченерах

  • Прогноз погоды в Кетченерах
  • Монитор погоды в Кетченерах

АРХИВ ПОГОДЫ в Кетченерах

Время (UTC), дата Ветер
(напр.,м/с)
 
Видим.   Явления Облачность Т
(С)
Тd
(С)
f
(%)
Тe
(С)
Тes
(С)
Комфортность P
(гПа)
Po
(гПа)
Тmin
(С)
Tmax
(С)
R
(мм)
R24
(мм)
S
(см)
03 18.06 СЗ 1 20 км ясно +21.8 +8.2 42 +23 +25 комфорт 1012.2 1005.5 +19.3
09 18.06 СВ 2 20 км 4/4 1500 м
[Cu med, cong]
+30.5 +8.6 26 +30 +41 жарко 1011.3 1004.7
15 18.06 С 3 20 км 1/0
[Ac trans]
+31.9 +7.2 21 +30 +32 жарко 1009.5 1003.0 +34.3
21 18.06 С 2 20 км ясно +24.0 +8.8 38 +25 +25 комфорт 1011.0 1004.3
03 19.06 З 1 20 км ясно +22.8 +9.4 42 +24 +27 комфорт 1010.6 1003.9 +19.9
09 19.06 СВ 2 20 км ясно +33.0 +5.7 18 +31 +49 жарко 1010.2 1003.7
15 19.06 С 3 20 км 1/0
[Ac trans]
+32.2 +4.7 18 +30 +31 жарко 1009.3 1002.8 +34.0
21 19.06 С 4 20 км ясно +23.9 +11.4 45 +25 +25 комфорт 1010.8 1004.1
03 20.06 С 3 20 км 1/0
[Ac trans]
+23.3 +13.4 54 +27 +28 душно 1011.4 1004.7 +22.0
09 20.06 СВ 4
{11}
20 км 6/6 1500 м
[Cu hum]
+33.3 +8.8 22 +32 +37 жарко 1010.6 1004.1
15 20.06 СВ 4
{10}
20 км 4/4 1500 м
[Cu hum]
+33.1 +5.9 18 +31 +32 жарко 1009.9 1003.4 +34.7
21 20.06 СВ 3 20 км 5/3 600 м
[Cb calv Ac trans]
+25.8 +6.8 30 +26 +26 жарко 1012.6 1005.9
03 21.06 СВ 2 20 км 3/0
[Ac trans]
+24.4 +7.4 34 +25 +26 комфорт 1014.5 1007.8 +22.7
09 21.06 СВ 3
{11}
20 км 1/1 1500 м
[Cu hum]
+33.7 +5.4 17 +31 +45 жарко 1014.2 1007.7
15 21.06 СВ 4 20 км 3/1 1500 м
[Cu hum Ac trans Ci fib]
+33.5 +3.2 15 +31 +32 жарко 1013.4 1006.9 +34.9
21 21.06 СВ 3 20 км 3/0
[Ac trans Ci fib]
+26.0 +4.9 26 +25 +25 комфорт 1014.6 1007.9
03 22.06 СВ 1 20 км ясно +25.1 +6.6 31 +25 +27 комфорт 1016.4 1009.7 +22.1
09 22.06 В 6-11
{12}
20 км 1/0
[Ac trans Ci fib]
+34.8 +4.9 16 +32 +39 жарко 1015.1 1008.6
15 22.06 СВ 3
{14}
20 км 3/0
[Ac trans Ci fib]
+34.8 +3.4 14 +32 +33 жарко 1013.5 1007.0 +36.8
21 22.06 СВ 4 20 км ясно +27.3 +2.1 20 +26 +26 жарко 1014.6 1007.9
03 23.06 СВ 1 20 км ясно +26.1 +5.9 27 +25 +28 комфорт 1015.9 1009.3 +23.2
09 23.06 В 3 20 км ясно +37.7 +3.4 12 +35 +50 очень
жарко
1014.2 1007.8
15 23.06 В 3 20 км 3/3 1500 м
[Cu hum]
+36.6 +3.3 13 +34 +35 очень
жарко
1012.6 1006.2 +38.7
21 23.06 штиль 0 20 км ясно +23.5 +2.4 25 +23 +23 комфорт 1014.0 1007.3
03 24.06 СВ 2 20 км 8/0
[Ac trans Ci fib]
+26.5 +4.4 24 +25 +27 комфорт 1013.8 1007.2 +20.1
09 24.06 В 3 20 км 9/0
[Ac lent Ci]
+37.3 +3.8 13 +34 +43 очень
жарко
1012.1 1005.7
15 24.06 Ю 5-11
{11}
20 км 9/9 600 м
[Cb calv]
+31.5 +11.2 29 +32 +32 жарко 1011.2 1004.7 +39.1

 

Местоположение метеостанции Кетченеры (Калмыкия, Россия): широта 47.32 долгота 44.57 высота над уровнем моря 58 м.

В архиве по умолчанию представлена погода в Кетченерах за последнюю неделю. Архивные данные за месяц целиком и за предыдущие месяцы, начиная с января 2011 года, Вы можете получить, выбрав интересующий диапазон дат из раскрывающегося списка и нажав кнопку "Ввод!".


*Определитесь, кто Вы:
робот инопланетянин человек

Внимание! Время в таблицах - всемирное. Для получения местного времени необходимо прибавить поправку, которая равна 3 ч.

Смотрите также архив погоды в соседних городах и на ближайших метеорологических станциях:

Погода в Малых Дербетах (Калмыкия, Россия) (69 км)
Погода в Элисте (Калмыкия, Россия) (107 км)
Погода в Ремонтном (Ростовская область, Россия) (108 км)
Погода в Котельниково (Волгоградская область, Россия) (112 км)
Погода в Юсте (Калмыкия, Россия) (134 км)
Погода в Яшкуле (Калмыкия, Россия) (140 км)
Погода в Черный Яр (Астраханская область, Россия) (143 км)
Погода в Волгограде город (Волгоградская область, Россия) (150 км)
Погода в Утте (Калмыкия, Россия) (153 км)
Погода в Нижнем Чире (Волгоградская область, Россия) (156 км)

Пояснения к столбцам:

Ветер - указаны скорость ветра в м/с - средняя за 10 мин, порывы в срок и между сроками (в фигурных скобках) и направление, откуда дует ветер: С - северный, СВ - северо-восточный, В - восточный, ЮВ - юго-восточный, Ю - южный, ЮЗ - юго-западный, З - западный, СЗ - северо-западный.
Видимость - горизонтальная дальность видимости в метрах или километрах. При видимости от 1 до 10 км при отсутствии осадков обычно наблюдается дымка, при ухудшении видимости до 1 км и менее - туман. В сухую погоду видимость может ухудшаться дымом, пылью или мглою.
Явления - указаны атмосферные явления, наблюдавшиеся в срок или в последний час перед сроком; фигурными скобками обозначены явления, наблюдавшиеся между сроками (за 1-3 часа до срока); квадратными скобками обозначены град или гололедные отложения с указанием их диаметра в мм.
Облачность - указаны через наклонную черту общая и нижняя облачность в баллах и высота нижней границы облаков в метрах; квадратными скобками обозначены формы облаков: Ci - перистые, Cs - перисто-слоистые, Cc - перисто-кучевые, Ac - высококучевые, As - высокослоистые, Sc - слоисто-кучевые, Ns - слоисто-дождевые, Cu - кучевые, Cb - кучево-дождевые. Подробнее классификацию облаков см. в Атласе облаков (PDF).
T - Температура воздуха - температура, измеренная на высоте 2 м над землей.
Td - Температура точки росы - температура, при понижении до которой содержащийся в воздухе водяной пар достигнет насыщения.
f - Относительная влажность воздуха - влажноcть воздуха, измеренная на высоте 2 м над землей.
Te - Эффективная температура - температура, которую ощущает одетый по сезону человек в тени. Характеристика душности погоды. При расчете учитывается влияние влажности воздуха и скорости ветра на теплоощущения человека.
Tes - Эффективная температура на солнце - температура, которую ощущает человек, с поправкой на солнечный нагрев. Характеристика знойности погоды. Зависит от высоты солнца над горизонтом, облачности и скорости ветра. Ночью, в пасмурную погоду, а также при ветре 12 м/с и более поправка равна нулю.
P - Атмосферное давление - приведенное к уровню моря атмосферное давление.
Po - Атмосферное давление - измеренное на уровне метеостанции атмосферное давление.
Tmin - Минимальная температура - минимум температуры воздуха на высоте 2 м над землей.
Tmax - Максимальная температура - максимум температуры воздуха на высоте 2 м над землей.
R - Количество осадков - Количество выпавших осадков за период времени, мм. При наведении курсора мыши на число - период времени, за который выпало указанное количество осадков.
R24 - Количество осадков - Количество выпавших осадков за 24 часа, мм.
S - Снежный покров - Высота снежного покрова, см. При наведении курсора мыши на число - состояние снежного покрова и степень покрытия местности в баллах.